Theta_e
329 333 330 328 329 326 325 323 321 323 325 323 320 318 323 325 316 313 324 330 324 328 333 331 332 334 332 332 332 332 335 336 335 336 336 337 341 346 350 355 358 360 360 361 363 362 360 358 357 358 358 358 360 359 359 360 359 358 359 360 362 363 364 366 367 367 366 367 367 367 365 364 363 361 361 360 359 360 362 364 364 362 358 359 364 366 368
327 331 330 330 328 326 326 326 324 325 325 323 323 323 326 326 322 323 331 331 329 332 333 331 333 333 331 332 333 331 333 335 333 334 334 332 334 339 347 353 357 361 362 363 364 365 364 361 358 359 358 357 358 358 358 359 359 358 359 360 361 363 365 366 368 368 367 366 368 367 366 365 365 365 363 362 361 360 361 363 363 364 362 359 361 365 367
324 327 329 328 327 326 324 324 326 326 325 325 324 324 327 326 324 327 331 328 330 332 333 333 335 335 334 333 332 332 333 333 334 333 332 331 333 336 340 345 354 359 362 365 367 367 366 364 361 359 358 357 356 356 357 357 357 357 357 359 362 362 364 366 368 369 368 367 368 369 367 366 367 367 366 363 363 362 361 362 364 364 364 362 360 363 366
321 323 325 325 325 326 321 320 325 326 323 323 323 325 327 325 323 325 323 322 328 334 333 333 334 335 334 334 333 334 333 332 332 332 332 333 334 335 336 337 343 349 353 361 368 366 363 363 361 358 357 358 356 355 355 356 356 356 356 358 361 362 363 365 368 370 370 369 370 370 369 369 368 369 367 365 364 364 363 363 365 365 365 365 362 362 365
320 322 323 323 322 322 318 320 325 327 326 326 326 326 329 328 327 325 320 322 331 336 335 333 333 333 333 334 334 333 333 334 334 334 333 334 333 334 336 338 338 336 340 351 357 357 356 359 359 357 355 356 356 355 355 354 354 355 355 356 359 362 364 364 368 371 371 370 371 371 371 370 369 370 369 367 366 366 365 366 365 365 366 366 365 364 364
318 320 322 321 319 318 320 325 328 327 327 327 326 325 329 329 329 327 327 330 334 334 333 332 332 333 332 333 334 333 334 335 334 334 335 335 335 336 337 334 334 337 339 345 350 349 348 351 354 356 355 354 354 355 354 354 355 355 355 356 358 362 363 364 366 370 372 371 371 371 373 372 371 371 370 369 368 366 366 367 366 367 367 366 367 365 364
318 319 320 319 317 319 324 327 328 328 327 327 328 328 328 328 328 328 330 331 332 332 333 333 334 334 333 333 332 332 332 334 334 335 336 336 336 337 336 336 344 352 353 353 353 352 348 345 347 351 353 353 354 354 354 354 354 356 356 357 358 360 364 364 366 369 372 373 371 372 373 373 372 371 371 370 369 367 367 367 367 368 368 368 367 366 366
320 319 318 319 320 323 325 329 329 330 329 328 326 324 326 328 328 328 329 329 329 330 330 331 332 333 332 331 333 334 333 333 334 332 333 335 334 334 335 341 353 363 363 357 357 357 354 349 345 345 349 352 352 354 353 353 354 355 356 358 358 360 363 364 365 369 373 373 373 373 373 373 372 371 371 371 370 367 366 366 367 368 368 368 368 367 368
321 319 316 319 321 323 325 329 331 331 330 330 326 322 325 329 328 329 331 330 331 331 331 332 332 333 336 337 336 332 330 328 332 332 330 329 332 336 341 348 356 361 361 360 360 359 356 352 347 343 344 348 351 352 352 353 354 355 356 358 358 359 363 365 367 369 373 373 373 374 374 374 372 372 371 372 371 369 367 366 368 368 369 369 369 368 368
319 318 316 319 319 319 322 327 332 332 330 331 332 326 326 331 331 331 334 335 335 335 334 334 337 341 341 338 333 334 337 337 342 348 343 337 342 349 352 354 356 357 361 366 366 363 361 358 354 350 347 345 349 351 352 353 354 355 356 358 359 360 362 366 368 370 373 374 374 373 375 374 373 372 372 372 371 370 367 367 367 368 368 369 369 368 368
318 317 317 318 317 319 326 331 332 332 330 334 334 326 324 333 337 336 335 335 337 337 339 342 345 343 336 329 333 346 350 348 352 355 354 352 352 354 353 354 360 363 365 368 366 364 362 359 359 357 352 350 350 351 352 353 354 355 356 358 360 360 362 366 370 371 373 373 374 373 373 374 373 372 372 372 372 370 369 368 367 367 367 368 368 368 368
318 317 317 317 317 323 331 331 330 329 329 332 328 320 323 337 342 339 339 338 340 344 348 349 346 340 333 334 343 350 350 348 353 354 355 353 353 354 355 358 363 364 364 367 368 365 364 365 364 360 357 353 352 353 354 352 353 355 356 357 360 361 361 365 369 372 373 374 374 373 373 374 373 372 372 372 372 371 371 369 368 367 367 367 368 368 367
317 317 316 316 318 324 330 330 330 329 328 329 325 322 332 343 341 339 341 341 342 346 348 348 347 343 342 344 347 347 347 350 352 352 353 353 354 356 358 362 363 361 361 367 368 364 366 368 364 361 358 355 355 356 355 354 354 354 355 357 359 361 362 364 368 373 373 374 374 373 373 373 373 372 372 372 371 372 370 369 368 368 367 366 368 368 368
315 316 316 315 318 324 327 327 327 326 325 327 329 333 339 341 337 339 339 339 343 346 346 347 346 345 344 344 346 346 348 350 350 349 351 354 355 355 358 361 361 359 363 367 367 364 364 364 362 360 359 356 357 357 356 356 355 352 355 358 360 362 366 366 368 372 375 374 373 372 372 372 372 372 371 371 371 370 370 368 368 368 369 368 367 366 366
314 315 316 316 319 325 327 325 326 330 331 332 335 336 337 336 336 339 339 341 345 346 345 346 346 345 346 346 346 347 348 348 348 349 352 354 355 355 357 359 357 359 363 366 366 365 365 365 366 366 360 358 359 358 356 357 357 353 356 359 360 363 367 368 370 374 375 374 372 371 370 371 372 372 372 370 371 371 370 369 369 369 369 368 367 366 365
315 314 316 319 323 325 325 325 329 332 333 334 335 336 335 335 336 338 339 342 345 345 345 346 345 346 348 347 347 348 348 347 348 349 352 353 353 353 356 358 356 358 362 365 365 364 363 364 368 370 367 361 360 361 362 362 359 356 356 358 361 365 368 369 370 373 374 372 370 368 369 370 371 372 372 371 370 371 370 370 369 369 369 367 366 366 365
319 318 319 322 324 323 323 325 327 328 328 331 334 335 335 336 338 339 340 342 343 342 343 343 344 346 347 347 346 346 346 346 347 348 350 351 352 353 356 357 356 356 360 362 360 361 362 363 365 370 371 366 363 367 370 369 365 361 359 362 366 368 369 369 369 370 372 370 369 369 368 370 371 372 371 371 371 370 370 369 368 368 367 365 365 365 365
320 320 320 321 323 322 322 323 324 324 324 326 331 334 335 336 336 336 338 340 341 341 341 342 344 345 344 344 345 344 345 346 347 348 349 350 352 353 354 354 355 356 357 358 357 358 360 360 363 366 369 368 369 369 369 368 368 367 366 366 369 371 370 369 368 368 370 370 369 368 367 368 370 370 370 370 369 369 369 368 367 367 366 365 364 363 364
318 319 320 320 321 321 320 320 321 323 323 324 328 332 333 333 334 335 337 339 339 340 340 342 343 343 343 343 344 345 347 348 347 348 350 350 351 352 353 354 354 356 356 357 357 358 359 360 361 362 363 365 365 365 365 365 366 368 369 368 368 369 368 368 368 368 369 369 367 366 366 365 367 367 368 368 368 369 368 367 367 367 366 365 363 362 362
318 318 319 318 319 318 318 319 320 321 321 324 328 329 330 331 332 334 335 336 339 340 340 341 341 342 342 341 342 345 346 347 348 348 349 350 351 352 352 353 354 355 357 357 358 358 358 358 358 359 359 360 361 363 365 366 367 369 368 367 368 368 366 367 368 368 367 367 366 366 367 367 365 366 366 365 364 365 367 366 366 367 365 365 364 362 362
316 316 317 317 317 317 317 317 319 321 323 325 326 326 326 328 330 332 333 335 337 339 340 340 340 341 342 341 342 343 343 344 345 346 347 349 350 350 351 352 353 354 355 356 356 356 356 355 356 357 357 357 359 361 364 365 368 368 368 368 369 367 366 366 367 367 367 366 365 365 367 365 365 366 366 365 366 367 365 365 365 365 365 366 365 364 364
314 315 316 317 317 317 317 318 320 322 323 323 323 324 325 327 328 329 331 333 336 338 339 338 339 341 342 341 341 341 342 343 343 344 346 348 349 350 350 350 351 352 354 354 354 354 354 354 354 355 355 355 356 357 361 364 367 367 367 367 367 366 366 367 366 365 366 365 365 365 364 363 364 366 364 363 365 365 362 361 362 362 362 362 361 359 358
314 315 316 316 317 317 318 318 319 320 320 320 322 323 324 325 326 328 330 334 336 338 339 339 338 340 340 340 341 341 341 342 343 344 346 347 348 349 349 349 350 351 352 352 353 353 353 353 352 352 353 354 353 354 355 360 363 364 365 365 365 364 365 364 364 363 363 363 363 363 363 362 365 367 364 360 358 356 355 355 355 356 356 354 352 347 341
314 314 315 316 316 316 317 317 318 318 318 319 320 321 322 323 324 325 329 333 334 336 339 339 339 340 340 340 341 342 341 341 344 345 345 347 347 347 348 349 349 349 350 351 351 351 352 352 352 352 351 351 351 352 352 354 358 360 362 362 362 362 362 362 363 364 363 364 364 362 362 365 365 365 365 361 350 342 340 340 338 338 338 337 336 333 330
314 314 315 315 315 315 316 316 316 317 318 318 319 320 321 322 322 324 327 332 334 335 337 339 340 340 340 340 341 342 341 342 344 345 345 346 346 347 348 348 348 349 349 350 350 350 351 350 351 351 351 350 350 350 350 352 354 355 356 358 358 358 359 359 362 362 361 362 363 362 363 365 364 363 364 359 347 337 336 336 334 332 332 332 330 329 328
314 315 315 315 315 315 315 315 316 317 317 317 319 319 320 321 322 323 326 331 333 335 337 338 339 340 341 342 342 342 342 342 343 345 345 346 346 346 347 347 348 348 349 349 349 349 349 349 349 350 350 350 349 349 348 349 350 351 351 353 353 354 354 356 356 356 355 356 357 357 356 356 356 355 353 350 345 341 341 343 341 339 339 338 333 329 329
315 315 315 316 316 315 315 316 317 317 317 318 318 319 320 322 324 325 329 333 334 334 335 337 338 339 340 341 343 343 342 342 343 344 345 346 346 346 346 346 346 346 347 348 348 348 349 349 350 349 349 349 348 348 348 347 348 347 348 349 350 350 350 352 352 350 351 351 351 352 350 348 346 345 343 342 342 341 341 341 339 338 339 339 335 332 333
315 315 315 316 316 316 316 316 316 317 317 318 319 319 321 322 324 327 331 333 333 333 334 336 337 338 339 340 341 341 341 341 341 342 343 345 345 345 345 346 346 346 346 347 347 347 348 348 349 349 349 349 348 347 347 347 347 347 347 347 347 347 347 348 349 349 350 350 350 349 348 346 344 343 342 341 341 342 341 339 337 336 339 338 337 336 337
315 316 316 316 316 316 317 317 317 317 317 318 318 320 321 322 323 327 331 332 331 331 333 334 336 337 338 339 340 341 340 339 339 340 341 343 343 344 344 345 345 345 346 345 346 345 346 347 347 348 348 348 348 348 347 346 346 346 347 347 347 347 347 348 348 348 348 346 346 347 347 346 345 345 344 342 341 342 341 339 337 338 340 338 337 337 338
316 317 317 316 316 316 316 316 317 317 317 317 318 319 322 325 327 329 332 332 330 330 332 333 334 335 336 336 338 339 339 339 339 339 340 341 341 342 342 343 344 344 344 344 344 344 345 345 346 346 346 347 348 348 348 348 348 347 347 347 347 346 346 346 347 348 346 344 346 347 347 345 345 345 344 342 342 341 341 339 339 339 339 338 337 337 338
317 317 317 317 317 317 317 318 318 318 318 318 318 319 322 328 330 331 332 332 331 330 331 331 332 333 333 334 336 337 337 337 338 338 338 339 339 340 340 341 341 341 342 343 343 344 344 344 345 345 345 345 345 346 346 347 348 348 346 346 344 342 342 343 344 345 346 345 346 346 345 344 344 343 342 342 342 340 340 340 339 338 337 337 338 338 337
317 318 318 318 318 318 318 319 319 319 319 319 319 321 324 328 330 331 332 332 331 330 331 330 331 332 332 332 333 334 335 336 336 337 337 338 338 338 338 338 339 338 339 340 340 341 341 342 342 343 344 344 344 344 343 343 344 344 344 343 342 341 341 342 343 343 343 343 344 343 343 343 343 343 341 341 341 340 339 339 338 338 338 338 338 337 335
320 321 322 320 319 319 320 320 320 320 320 320 321 323 326 328 328 330 332 332 330 330 330 331 331 331 331 331 332 332 333 334 335 336 336 336 336 336 337 336 337 337 337 337 337 338 338 339 339 340 341 341 342 343 343 343 342 341 340 341 341 341 341 341 341 341 342 342 342 342 342 342 341 341 340 339 339 340 339 338 338 338 338 338 338 337 335
324 325 325 323 321 321 322 322 322 321 321 321 323 325 326 327 328 329 331 330 329 328 329 330 330 331 330 330 331 331 331 332 332 333 334 335 335 335 335 335 335 335 335 335 335 335 336 336 336 337 337 338 339 340 342 342 342 342 341 340 340 340 340 340 341 341 340 340 341 341 341 340 340 339 339 339 338 338 338 337 337 336 336 337 338 337 335
325 326 325 324 323 323 322 322 322 323 323 324 326 327 327 328 329 330 330 330 328 329 330 331 330 330 330 331 331 331 331 331 332 333 333 333 332 333 333 333 333 333 333 333 333 334 334 334 335 335 335 336 337 337 338 340 341 341 341 341 339 340 339 339 339 339 339 338 338 338 339 339 338 338 338 338 336 336 336 336 336 336 336 336 336 335 335
325 325 325 324 325 324 323 323 324 325 325 326 327 327 328 329 329 328 330 330 329 330 332 331 331 330 330 330 331 331 330 330 330 331 330 330 330 330 330 331 331 331 331 331 331 332 332 332 332 333 334 334 335 335 335 336 338 338 339 339 339 339 339 339 339 340 339 339 338 338 338 338 339 338 338 337 337 336 336 336 335 335 335 335 335 335 335
322 324 324 324 325 326 325 325 326 326 327 328 328 327 329 329 328 328 330 331 330 331 331 330 329 329 329 329 329 328 328 327 327 327 327 328 328 328 328 328 328 328 329 328 328 329 329 329 330 331 332 333 333 333 332 333 335 335 335 336 337 337 338 338 338 338 338 338 338 338 338 338 338 338 339 338 338 338 337 336 336 336 335 334 334 334 334
319 320 321 322 322 322 323 323 323 325 327 329 329 328 328 328 328 329 330 330 330 331 330 329 329 328 328 327 326 326 325 325 325 325 325 325 325 325 325 325 325 326 326 326 325 326 326 326 326 327 329 329 330 330 329 331 333 333 334 334 334 334 334 334 335 335 335 335 335 336 336 336 336 337 337 337 337 337 337 337 337 336 335 335 335 334 334
316 317 319 319 319 319 319 320 321 321 323 324 325 326 327 327 327 328 328 327 328 328 328 327 327 327 326 326 325 324 324 324 323 323 323 322 322 321 321 321 321 322 322 322 322 322 322 323 323 324 325 325 326 326 326 327 329 330 331 331 331 331 332 332 332 332 332 332 332 333 333 333 333 333 334 333 334 334 335 335 335 335 335 335 335 335 335
316 316 317 317 317 317 318 318 318 319 319 319 319 322 324 324 323 324 325 325 325 325 324 324 324 324 323 323 322 322 322 322 322 321 320 319 319 318 318 317 318 318 319 318 318 318 318 319 320 321 321 322 323 323 324 324 326 326 327 327 327 328 328 329 329 330 330 330 330 330 330 330 330 331 331 330 331 331 332 332 333 333 333 334 334 334 334
315 316 316 316 316 316 316 317 317 317 317 317 317 317 319 319 319 320 321 322 321 321 320 320 320 320 320 319 319 318 318 318 318 318 318 317 316 315 315 315 315 316 316 316 315 315 315 315 316 317 318 319 320 322 322 322 322 322 322 323 323 323 324 325 326 327 328 328 328 328 328 328 328 328 328 328 327 327 328 329 329 330 330 331 331 331 332
315 315 315 315 316 316 316 316 316 316 316 315 315 315 316 316 316 316 317 316 317 317 317 318 318 318 317 317 316 316 315 314 315 315 315 314 314 314 313 313 313 314 314 313 313 313 313 313 314 315 316 317 318 319 320 320 321 320 320 320 320 320 321 321 322 323 324 324 324 324 324 324 325 325 325 325 324 323 323 323 325 325 327 327 327 328 328
314 314 315 315 316 316 315 315 315 315 315 315 314 314 314 314 314 314 314 313 313 313 314 315 316 316 316 315 315 314 313 312 312 312 311 311 311 312 312 312 312 312 313 312 312 311 311 311 312 313 314 315 315 316 317 317 318 319 319 319 319 319 319 319 319 319 320 321 321 321 320 320 321 321 322 322 322 320 318 318 318 320 321 321 322 322 322
314 314 315 315 315 315 315 314 314 314 314 314 313 313 313 313 313 312 313 312 312 312 312 312 313 314 315 314 314 313 313 312 312 311 311 310 310 310 310 310 310 311 311 311 310 310 310 310 310 311 312 313 314 314 314 315 315 316 317 318 318 318 317 317 317 317 317 317 318 318 318 318 318 318 318 318 318 316 314 314 314 314 314 314 314 315 316
315 315 315 314 314 314 315 314 314 313 313 313 312 312 312 312 312 312 312 312 313 312 312 312 312 312 312 312 312 311 311 311 312 312 312 312 311 310 310 309 309 309 309 309 309 309 309 308 308 309 310 311 312 313 313 313 313 313 314 314 315 316 317 316 316 316 316 315 315 316 316 316 316 315 315 315 314 313 312 312 311 311 311 310 309 310 310
314 315 315 315 315 315 315 314 313 313 312 312 312 312 312 311 311 311 311 311 311 311 311 311 311 311 311 311 310 309 309 309 310 311 311 312 311 311 311 310 309 309 308 308 308 309 309 308 307 308 308 310 310 311 311 311 311 311 311 311 312 313 314 314 314 315 315 315 314 314 314 314 314 314 313 313 312 311 310 310 309 309 308 307 307 307 306
313 313 314 314 315 315 315 314 314 313 313 313 313 312 312 311 310 310 310 310 310 310 310 310 310 310 310 310 310 309 309 308 309 309 309 309 310 309 309 310 309 309 308 307 307 307 307 307 307 307 308 308 309 309 309 309 309 309 309 309 309 309 310 310 311 312 312 313 313 313 313 313 313 313 312 312 311 310 309 309 308 307 307 306 306 306 304
311 312 312 312 313 314 314 313 313 313 313 313 313 312 311 310 310 310 309 309 309 309 309 309 309 309 309 309 309 309 309 308 308 308 308 308 308 308 308 308 308 308 308 307 307 306 306 306 306 306 307 307 308 308 308 307 308 308 308 307 308 308 308 307 308 308 309 309 310 311 311 312 312 312 311 311 311 310 309 308 307 307 306 305 304 304 303
311 311 311 311 312 312 312 312 312 312 312 312 312 311 311 310 310 309 308 308 308 308 308 308 308 308 308 308 308 308 308 308 307 307 307 307 307 307 307 306 307 306 306 306 306 306 305 305 305 306 306 306 306 307 307 306 306 306 306 306 306 307 307 306 306 306 306 306 307 307 307 308 309 309 309 309 309 309 309 308 307 306 305 304 303 303 302
309 310 310 310 310 310 311 311 311 311 311 310 310 310 310 310 310 309 308 308 308 308 308 308 307 307 307 307 307 307 307 307 307 307 306 306 306 305 305 305 305 305 305 305 305 305 305 304 304 305 306 306 305 305 305 305 306 306 305 305 305 305 305 306 306 306 306 305 305 305 305 305 305 306 306 306 307 307 307 307 306 306 306 305 305 303 302
308 309 309 309 309 309 309 309 309 309 309 309 309 309 309 309 309 309 309 309 309 309 308 308 307 307 307 307 307 306 306 306 306 305 305 305 305 304 304 303 303 303 303 303 304 304 304 304 304 304 304 304 304 304 304 305 304 304 304 305 304 304 304 304 305 305 305 305 305 305 305 305 305 305 304 304 304 304 304 304 305 305 305 305 305 304 304
307 307 307 308 308 308 308 307 307 307 308 307 308 308 308 308 308 308 309 308 308 308 308 307 307 307 306 306 306 306 305 305 304 304 304 304 304 303 303 303 302 302 302 302 302 302 302 302 302 302 303 303 303 303 303 303 303 303 303 303 303 303 303 302 303 304 304 304 304 304 304 304 305 305 305 304 304 304 304 303 303 303 303 303 303 303 303
Wind_Speed
15 7 6 9 8 14 16 19 24 25 25 26 24 19 16 13 9 8 11 13 10 7 11 11 10 8 7 6 5 4 7 8 8 7 4 4 9 11 9 9 10 10 10 10 11 12 14 17 19 21 22 23 25 26 26 28 29 30 31 32 33 33 32 32 32 33 33 32 32 33 33 34 34 33 32 32 32 32 30 30 29 30 30 30 29 29 29
16 12 8 8 9 9 9 14 22 24 23 25 24 21 20 17 13 10 10 14 14 9 10 12 12 7 4 3 2 1 1 5 5 4 1 1 6 11 11 10 10 10 10 11 12 12 13 15 17 20 21 21 23 24 25 26 28 29 29 31 32 32 32 32 31 31 31 31 31 32 33 33 34 33 32 30 31 31 31 30 29 29 29 30 30 29 29
14 13 10 8 8 7 8 13 17 20 23 24 23 21 20 17 15 13 10 10 11 9 8 7 5 2 2 3 4 4 2 2 3 2 3 4 3 5 7 7 7 8 9 11 11 13 14 15 18 20 21 21 22 23 24 26 28 28 28 29 31 32 31 31 29 29 31 31 30 31 33 32 32 32 32 30 30 31 31 31 30 29 28 29 30 30 30
10 13 13 11 9 8 10 12 12 14 18 19 18 18 18 16 16 16 13 10 8 7 7 7 2 1 4 4 3 4 4 4 5 5 5 5 5 4 4 4 3 4 6 9 11 12 13 15 19 20 20 21 22 23 24 25 26 27 28 29 30 31 30 28 28 29 30 30 30 30 31 31 31 31 31 30 29 29 30 31 30 29 29 29 31 30 30
9 14 16 13 9 9 11 12 12 13 13 12 12 13 14 14 12 11 10 8 4 4 5 6 5 5 7 6 5 6 6 5 6 7 7 7 7 6 5 5 5 5 4 4 6 7 7 11 16 19 20 21 22 23 23 23 24 27 29 29 29 30 30 28 28 29 29 30 30 29 30 30 29 28 29 30 29 29 29 30 30 30 30 30 30 31 31
9 13 14 12 12 12 9 8 12 14 12 11 12 11 11 11 9 7 7 6 5 5 6 8 8 7 5 5 5 6 5 4 6 7 7 7 7 7 6 6 7 6 5 3 3 4 5 8 11 15 19 20 20 21 22 23 25 26 27 28 28 28 30 30 29 29 29 29 30 29 28 28 28 28 29 31 31 29 29 29 30 31 31 30 31 32 32
8 9 10 12 14 11 7 7 11 14 16 16 14 13 13 13 12 12 11 9 7 6 5 5 4 3 3 3 5 6 6 6 7 7 7 7 7 7 7 6 4 3 3 3 3 4 5 6 7 10 14 17 18 20 22 24 25 25 26 26 27 27 29 30 30 29 29 29 29 29 28 28 29 30 31 31 32 31 30 30 31 31 31 31 32 32 32
6 6 9 10 6 4 6 8 6 7 13 17 16 16 16 16 14 14 14 13 12 10 8 6 4 3 4 5 5 5 7 8 9 9 9 8 8 7 6 4 4 4 4 4 4 4 5 6 7 8 11 14 17 20 22 24 25 26 26 26 27 27 28 30 31 30 29 29 29 28 29 29 31 32 31 31 31 31 30 29 29 30 30 31 31 31 32
6 6 9 8 4 3 8 9 5 5 9 13 13 13 13 14 13 11 9 9 9 8 7 6 4 3 4 4 5 7 11 12 11 12 13 11 8 6 5 5 5 4 4 5 5 5 7 8 10 10 11 13 17 19 21 23 25 26 27 27 28 28 29 30 31 30 29 29 28 28 29 29 31 31 30 29 29 29 29 29 29 30 29 29 30 31 32
6 7 9 9 8 8 8 9 8 6 4 5 6 7 8 9 9 8 6 5 4 5 6 5 3 2 3 5 6 6 7 6 7 10 9 5 4 7 7 7 7 6 6 5 5 6 8 9 11 11 12 13 15 18 20 22 24 25 26 28 29 29 28 28 29 29 29 29 28 28 28 29 30 29 29 28 28 28 29 29 29 29 28 27 28 29 31
8 10 9 10 10 6 5 8 10 7 3 2 4 6 8 6 5 3 6 7 7 6 6 4 2 4 6 8 4 4 7 8 10 12 11 9 9 9 8 8 8 8 8 8 8 9 10 11 12 12 12 14 14 16 19 21 22 25 26 27 28 28 27 26 26 27 28 28 27 28 28 29 28 28 27 27 26 27 28 28 27 26 26 26 26 28 29
9 10 9 9 7 2 5 5 6 6 5 5 6 9 7 5 5 3 1 4 3 1 3 3 4 7 7 5 3 7 10 10 9 9 10 10 9 8 8 9 10 10 9 8 9 9 7 7 8 10 11 13 14 14 17 20 21 24 25 24 24 26 27 25 25 26 26 27 27 27 27 27 25 25 25 25 24 25 26 25 25 25 26 26 26 27 28
10 11 10 8 7 3 5 5 5 4 5 8 7 6 3 6 5 4 2 2 2 2 2 3 3 5 5 7 8 9 9 9 9 9 8 8 8 8 8 9 10 10 8 6 6 7 6 5 6 8 9 11 13 13 15 18 19 20 21 21 21 24 26 25 24 25 25 26 27 26 25 24 24 24 24 24 24 25 25 24 24 24 25 25 25 25 26
11 11 9 9 8 1 6 3 5 4 4 6 2 3 4 2 3 4 5 4 5 5 4 4 4 6 9 11 11 10 10 9 9 9 8 8 8 8 8 8 8 9 8 6 6 6 5 5 5 7 8 9 10 11 13 15 16 16 17 20 21 22 23 24 24 23 24 25 25 25 24 24 23 24 24 23 24 24 23 23 23 24 24 24 23 23 25
9 11 10 10 8 4 12 4 4 3 1 1 4 7 6 3 2 5 6 5 6 6 6 6 7 9 10 11 10 9 9 9 9 8 7 6 7 7 7 6 7 8 7 5 5 6 7 7 7 5 7 8 8 9 11 11 13 13 13 16 20 20 20 22 22 22 23 24 23 22 22 23 23 22 22 22 22 22 22 22 22 22 23 23 22 21 23
7 11 10 5 1 6 11 6 1 3 5 4 6 8 5 3 4 6 6 6 7 7 7 7 8 9 9 9 8 8 8 8 8 7 7 6 6 6 6 6 7 8 7 4 5 6 6 7 7 7 5 6 8 7 7 7 9 12 11 13 16 17 18 19 20 20 20 21 21 21 21 21 21 21 21 21 21 21 21 21 20 20 22 22 21 20 22
5 7 5 4 6 5 6 6 6 7 7 6 7 8 7 6 7 8 7 7 8 8 8 8 8 9 9 9 8 8 8 8 7 7 7 7 7 7 6 5 6 7 5 5 5 6 7 6 6 7 4 3 7 5 3 2 5 8 9 10 13 15 16 17 18 17 17 17 19 19 18 19 19 19 19 19 18 18 19 20 20 19 20 20 20 20 21
6 8 9 7 5 4 6 7 8 9 9 8 8 8 8 8 9 10 9 10 11 10 10 9 8 9 10 10 10 9 8 8 7 7 7 7 7 8 6 6 7 7 4 4 4 4 5 4 4 6 5 3 4 3 3 2 3 4 6 9 10 11 13 14 15 16 15 15 16 17 17 17 17 17 17 17 17 17 17 18 19 19 18 18 19 19 19
5 6 8 7 4 6 9 9 9 8 8 8 8 8 8 9 11 11 11 12 12 11 11 10 10 9 9 8 8 8 8 8 7 7 7 6 6 7 6 5 6 6 3 3 2 2 4 5 6 5 5 4 3 2 2 4 4 4 5 7 9 9 10 11 12 14 14 14 14 15 16 15 14 14 15 15 15 15 16 16 17 17 17 16 17 17 18
7 9 10 10 10 11 11 10 9 8 7 8 9 9 9 10 11 12 11 11 11 11 10 10 10 9 7 6 6 6 6 7 7 7 6 6 5 6 6 5 4 3 2 2 2 4 5 6 7 6 5 5 4 3 2 1 3 6 6 6 6 8 9 9 10 11 12 11 11 12 14 14 13 13 13 14 15 14 13 13 13 14 15 16 16 17 17
9 11 12 12 13 13 13 13 10 7 7 8 10 10 11 11 12 12 12 11 10 10 10 9 9 9 7 5 6 5 5 6 7 8 7 7 6 6 6 6 5 3 2 2 3 5 6 6 6 6 6 7 7 6 6 5 3 4 6 6 6 7 8 7 8 8 9 9 9 9 11 13 11 8 6 7 8 7 5 4 3 4 6 7 8 9 8
9 10 11 11 10 9 10 9 7 8 9 10 11 11 11 11 12 12 13 12 11 10 9 7 8 8 6 5 5 4 3 3 5 6 7 6 5 4 4 3 3 2 2 3 4 5 6 5 6 7 7 8 8 7 7 7 7 6 5 5 6 7 7 5 5 7 8 10 9 8 9 11 11 7 4 3 3 5 5 4 2 2 3 3 6 9 10
9 9 10 9 8 8 9 10 10 9 9 11 12 12 11 11 11 12 13 12 12 11 8 6 6 6 5 5 5 3 2 1 1 2 3 4 3 3 2 2 1 2 3 4 4 5 6 6 6 7 8 8 8 7 7 7 7 7 7 7 7 5 5 6 5 3 5 6 6 7 8 7 8 9 8 7 7 6 5 5 4 3 4 5 6 8 9
12 12 11 10 10 11 13 14 14 12 10 11 13 12 11 11 11 11 12 12 11 11 9 6 5 5 5 4 3 2 0 1 2 2 1 2 3 3 2 2 2 3 4 4 4 5 6 6 7 8 9 9 8 8 8 7 6 7 7 7 8 8 6 6 7 6 5 6 5 3 3 3 6 6 6 8 10 10 9 10 9 8 7 6 6 6 8
13 12 11 11 12 13 14 14 14 13 12 13 13 13 12 12 12 12 12 11 10 10 10 7 6 6 4 3 2 2 3 2 2 3 3 4 4 4 5 5 6 5 5 5 6 6 7 8 8 9 10 10 10 9 9 8 7 7 7 7 8 9 8 7 5 6 6 5 6 6 4 3 4 4 5 6 9 9 8 9 10 11 11 10 11 10 10
13 12 12 14 15 15 14 14 14 14 14 14 14 14 13 13 13 13 12 10 9 8 8 7 5 3 2 2 1 2 4 5 5 4 4 5 5 6 7 8 8 8 8 8 9 9 9 9 10 11 11 11 11 10 9 9 9 8 8 8 9 9 8 7 6 7 7 5 6 6 5 5 6 6 5 5 7 7 6 6 6 8 9 9 11 13 14
13 13 13 15 16 16 16 16 15 14 14 14 14 14 13 12 12 12 11 9 8 8 8 7 6 3 0 1 1 3 5 6 6 6 6 7 7 8 8 9 9 9 9 10 10 10 11 11 11 12 12 12 11 11 10 10 10 9 9 9 10 10 9 8 8 8 8 8 7 7 7 7 8 8 8 7 7 6 5 5 5 5 6 7 9 13 15
15 13 13 14 16 16 16 17 17 16 15 15 14 14 13 11 11 12 11 8 7 8 8 7 6 4 2 1 1 4 6 7 7 8 8 8 8 10 10 11 11 11 10 10 10 10 11 12 13 13 12 12 11 11 10 10 9 9 10 10 11 11 10 10 10 10 10 10 10 8 8 8 8 8 7 7 6 6 6 6 6 5 4 5 7 9 10
17 16 15 15 16 17 17 17 17 18 17 16 15 14 14 13 12 12 11 9 8 8 6 6 7 5 4 3 2 3 4 6 8 9 10 10 10 10 12 13 13 13 14 14 13 12 12 12 13 12 12 11 10 10 11 10 10 9 9 10 11 11 11 10 11 11 11 11 10 9 8 7 7 7 7 6 5 4 5 5 4 4 3 5 7 8 9
16 16 15 14 15 19 19 18 18 19 19 17 16 15 14 14 12 11 9 9 9 8 5 4 4 3 3 4 4 4 5 7 9 10 11 13 13 12 13 14 13 12 13 14 13 13 13 13 13 13 12 10 9 9 10 11 12 11 11 11 11 11 10 9 9 10 10 9 9 8 7 6 6 6 6 5 5 4 4 4 3 2 3 4 6 8 9
18 17 17 17 16 18 19 18 17 19 18 18 18 17 15 14 13 11 9 9 9 8 7 5 3 2 2 3 5 6 8 10 12 13 13 14 14 15 16 16 13 12 12 14 14 14 14 14 14 14 13 12 10 8 7 9 11 12 12 12 11 11 11 10 10 9 8 7 7 6 5 6 6 6 5 4 4 3 3 3 2 2 3 4 6 7 9
19 19 20 19 17 18 19 17 17 19 19 17 17 16 14 13 12 11 9 8 7 7 7 6 5 4 3 3 5 7 9 11 13 14 14 14 14 15 16 17 16 15 15 15 16 16 15 15 15 13 12 12 12 11 9 7 8 9 11 10 10 9 9 9 8 8 8 8 7 7 7 6 6 6 5 5 3 2 2 2 2 2 3 4 5 6 8
16 16 17 18 18 18 19 17 16 17 18 17 15 14 12 10 10 10 10 10 9 8 7 6 6 6 5 4 5 8 10 10 11 12 13 14 14 15 16 16 16 17 17 17 17 17 17 16 14 13 12 12 12 12 11 9 7 8 9 9 9 9 9 9 8 8 9 9 8 8 8 7 6 6 5 4 4 3 3 3 3 3 3 3 4 5 8
16 14 13 14 15 16 16 16 15 15 15 14 14 12 12 11 11 11 9 8 8 8 8 8 8 7 6 5 5 7 8 8 7 9 12 14 15 16 16 17 18 19 19 18 18 18 18 18 16 14 13 13 13 13 12 10 8 8 8 8 9 9 9 9 10 9 9 9 8 8 7 7 7 6 4 4 3 3 2 2 3 4 4 3 4 5 8
10 11 9 8 9 11 13 14 14 13 12 12 12 12 12 11 10 9 8 10 10 10 9 10 10 9 8 7 7 8 8 8 9 11 14 16 17 16 17 18 18 19 19 20 19 18 19 21 21 17 16 15 14 13 12 10 8 9 9 8 9 9 9 10 10 9 8 8 7 7 7 6 5 4 4 3 3 2 2 2 2 3 3 4 4 4 7
7 2 2 5 6 10 13 13 12 11 10 8 9 10 9 6 6 5 8 12 14 13 13 13 13 12 10 9 10 10 11 12 14 15 16 17 18 18 18 19 18 18 18 19 19 18 18 20 22 19 16 15 15 16 17 14 9 8 9 9 9 9 10 10 10 10 10 9 8 8 7 6 6 6 6 6 6 5 5 5 4 4 5 5 5 4 5
18 12 8 6 4 3 4 3 5 8 9 7 6 6 4 3 6 11 14 14 15 16 16 16 15 13 12 13 14 14 15 16 17 17 18 18 19 20 20 20 20 19 17 16 17 18 18 19 20 18 17 16 16 18 21 18 12 9 9 10 10 10 11 11 11 12 12 11 10 10 9 9 10 10 10 10 9 8 8 8 7 7 7 7 6 5 4
22 19 16 15 14 13 11 11 10 8 6 5 5 6 6 5 2 8 12 14 15 16 15 15 18 19 18 16 16 17 18 19 20 20 20 20 20 22 22 20 19 19 16 15 17 19 19 19 20 20 19 18 17 18 21 20 14 11 11 11 11 11 11 12 12 12 12 12 11 12 12 13 13 13 13 13 12 11 11 11 11 10 9 8 8 7 6
20 20 19 19 18 17 16 18 20 20 16 12 7 8 13 14 13 13 15 16 18 19 17 15 19 21 18 15 15 17 18 19 20 20 20 21 22 23 23 22 22 20 18 18 20 23 23 22 21 21 21 20 18 18 20 19 16 14 13 13 14 14 13 13 13 13 12 12 12 12 12 13 13 13 13 13 12 12 12 13 13 12 11 11 10 10 10
18 18 18 18 18 18 16 16 18 22 25 24 19 13 15 20 20 18 16 16 19 22 21 17 18 19 17 15 16 18 18 19 19 18 18 19 21 21 20 21 23 24 22 21 23 24 26 26 24 22 22 21 19 17 17 17 16 15 15 15 16 16 15 15 15 13 13 13 13 13 13 13 14 14 13 13 14 14 13 13 13 13 13 13 13 12 11
18 18 18 17 17 17 17 16 17 21 26 28 26 23 24 30 27 20 17 19 23 25 25 23 22 22 20 20 21 21 20 21 22 21 20 19 19 16 14 16 21 23 23 23 25 26 27 28 27 25 23 22 21 19 17 16 16 17 17 18 18 18 17 16 16 15 15 15 15 14 14 14 14 14 14 14 15 15 15 15 15 14 13 14 14 14 13
18 19 18 17 16 17 20 21 21 20 22 26 28 28 30 34 32 26 24 26 29 28 27 27 28 28 26 25 24 23 23 24 25 25 24 23 21 17 13 16 22 25 23 24 26 27 27 28 29 27 25 23 22 20 19 18 18 19 19 19 20 19 19 18 17 16 16 15 15 16 16 15 15 15 15 15 16 17 17 17 17 17 16 16 15 16 15
18 18 16 14 14 16 20 22 21 19 21 25 29 30 30 31 32 31 29 30 31 30 28 28 28 28 27 25 23 21 21 22 23 24 25 26 27 25 21 20 22 25 24 24 25 26 26 26 27 27 25 23 22 21 20 19 19 19 20 20 20 20 20 20 19 18 17 17 16 16 16 16 16 16 16 16 17 18 18 19 19 19 19 19 18 19 18
20 18 16 16 17 18 18 19 19 17 18 21 26 29 29 29 30 30 29 28 28 27 27 27 27 25 25 25 23 20 19 20 20 19 19 19 22 25 25 23 23 24 25 24 24 24 25 26 27 26 25 23 22 21 21 20 20 20 20 20 20 20 20 20 20 20 19 18 17 17 16 16 17 17 17 18 18 18 19 19 19 20 20 21 21 22 22
18 18 18 20 21 19 17 17 17 17 18 21 25 27 27 26 26 27 26 25 24 23 24 25 25 24 23 23 23 23 22 22 21 19 16 14 13 17 20 23 24 24 24 24 23 23 24 26 27 26 25 23 21 20 20 20 20 21 21 21 21 21 20 20 20 20 19 19 18 18 17 16 17 17 18 18 18 19 19 19 19 19 20 21 22 24 25
18 19 20 20 19 17 17 18 19 20 21 21 20 21 23 24 24 24 24 23 23 23 23 23 23 21 20 20 21 23 23 24 23 22 19 16 14 15 17 19 21 23 24 24 23 22 22 24 26 26 24 21 20 19 19 19 20 20 21 21 21 20 20 20 19 19 19 19 18 18 18 17 17 17 17 18 18 19 19 19 19 19 20 21 21 24 28
19 19 19 18 17 16 17 19 20 20 19 15 12 13 17 21 21 21 22 22 22 22 23 23 22 21 20 19 19 19 18 18 18 18 18 17 17 17 18 18 18 19 21 22 22 22 23 23 24 24 23 21 20 19 19 20 20 20 20 21 21 20 20 20 19 18 18 18 18 18 18 18 18 17 17 17 17 18 18 19 19 19 20 21 21 23 27
18 18 18 19 18 18 18 19 18 16 14 12 12 13 15 17 18 18 20 20 21 21 21 21 21 20 20 21 20 18 17 15 14 13 14 15 16 17 17 18 18 17 16 17 19 21 23 23 23 22 21 20 20 20 20 20 20 20 20 20 20 20 20 20 19 18 18 18 17 17 17 18 18 18 18 17 18 17 17 18 19 19 19 20 21 22 24
17 17 17 19 19 18 18 17 15 13 12 13 14 14 13 14 15 16 16 17 17 18 18 18 18 18 18 18 19 19 18 17 15 14 14 15 15 15 15 17 17 17 15 15 16 18 20 22 22 21 20 20 20 20 20 20 20 20 20 19 19 19 19 19 19 18 18 18 18 18 18 18 18 18 18 18 18 18 18 18 19 18 18 19 20 21 25
15 16 16 17 18 18 17 15 14 13 14 14 14 13 13 13 13 13 13 14 14 14 15 15 16 16 16 16 16 16 16 16 15 15 14 14 15 14 15 15 16 16 16 15 15 16 18 20 20 20 19 19 19 19 19 19 19 19 19 18 18 18 18 17 17 17 17 17 17 17 18 18 18 18 18 18 18 18 18 18 18 18 18 18 18 19 23
14 14 14 14 15 16 16 16 15 15 15 14 13 13 13 13 13 12 12 12 13 13 13 14 14 13 14 14 14 14 14 14 14 14 14 13 14 14 14 15 15 15 15 15 15 15 16 17 18 19 18 17 18 18 18 18 18 18 18 17 17 18 18 17 17 16 16 16 15 15 16 16 16 16 17 18 18 19 19 19 19 19 19 19 18 18 18
14 13 12 12 12 13 14 14 15 16 15 15 14 14 13 13 12 12 12 12 12 12 12 12 12 13 13 13 12 13 13 13 13 13 13 13 13 13 14 14 15 15 14 14 14 15 15 15 17 18 18 17 17 17 17 17 16 17 17 16 16 17 17 18 17 16 16 15 15 14 15 15 15 15 15 15 16 16 17 18 19 19 19 19 20 20 19
Wind_Direction
240 245 311 318 252 216 215 214 208 202 202 206 209 212 206 199 213 209 186 201 215 164 155 170 158 141 138 146 158 119 110 136 143 129 125 134 139 147 154 157 167 176 181 186 190 192 198 203 203 204 206 207 206 207 206 206 206 203 198 195 195 194 194 196 196 196 196 197 199 202 204 205 206 208 208 208 209 209 209 208 210 211 212 211 208 206 205
236 231 245 279 256 236 245 232 214 204 203 206 207 210 209 203 212 218 185 189 209 201 167 162 150 147 176 187 216 314 116 171 161 114 103 230 163 158 156 160 173 179 181 185 188 191 196 202 203 204 206 207 208 208 206 205 207 206 200 196 196 196 195 196 195 194 194 197 198 200 202 204 204 205 206 206 207 208 209 209 210 211 212 213 211 209 206
235 227 221 242 252 251 247 231 217 208 205 204 204 207 209 206 208 211 193 181 200 210 203 190 156 128 267 258 244 256 272 281 311 322 269 267 244 181 161 163 170 173 182 185 184 190 195 198 202 203 204 206 208 209 207 205 205 206 203 198 197 199 199 196 192 191 193 195 196 198 200 202 202 201 203 205 206 207 208 209 209 210 211 213 214 212 209
235 223 213 220 234 240 238 232 226 219 212 206 203 203 204 206 207 207 205 199 194 193 210 228 230 215 256 268 262 265 286 293 288 281 277 283 280 250 217 218 207 189 197 189 182 191 196 196 200 203 203 203 205 208 209 205 203 204 205 203 199 199 201 196 191 191 192 192 194 196 197 198 199 198 199 203 206 206 207 208 208 209 211 212 213 213 211
230 219 212 215 224 231 234 228 219 218 219 215 208 202 204 210 212 211 210 207 189 169 198 224 221 214 229 244 255 263 268 274 278 281 280 274 268 255 235 243 265 268 254 210 188 201 203 198 200 201 202 204 205 206 207 205 202 202 205 205 200 197 199 197 194 193 192 191 193 195 195 195 195 195 196 201 204 205 205 205 206 208 210 210 211 213 213
223 210 203 210 219 223 222 216 218 222 224 223 216 206 204 208 214 223 221 212 199 190 207 224 226 228 229 234 256 266 263 267 274 272 270 273 280 284 281 280 285 294 309 318 292 273 251 223 209 201 202 205 205 205 205 204 204 203 204 205 201 196 197 198 197 194 192 192 194 194 193 191 191 193 196 200 203 204 204 204 205 207 209 210 211 212 214
220 185 182 207 220 227 223 212 225 232 228 228 232 230 224 218 217 222 227 229 222 215 224 230 224 231 245 261 274 276 277 281 281 279 280 282 281 281 283 287 301 331 335 312 301 296 275 253 231 211 206 205 203 204 204 204 204 202 202 204 203 198 196 198 198 195 193 193 193 192 190 189 190 194 197 199 201 203 204 204 205 207 208 210 211 212 214
241 184 185 206 217 234 216 199 213 240 227 222 227 232 231 230 227 225 226 228 227 226 229 226 214 229 252 264 271 280 290 287 280 279 279 276 275 278 288 315 359 22 355 318 312 310 294 278 261 238 220 210 205 205 204 203 204 202 200 202 204 201 198 198 198 196 194 192 191 191 190 190 193 196 198 199 199 200 203 206 206 208 209 211 212 213 214
252 219 202 194 156 171 201 191 190 225 221 218 224 230 228 224 227 232 230 227 225 223 222 224 233 251 262 268 270 274 272 268 270 276 269 262 274 300 331 350 356 355 328 305 291 281 275 269 263 255 241 222 211 207 204 202 203 202 200 200 202 202 200 199 198 196 194 193 191 191 191 193 196 198 198 199 198 199 202 206 208 208 210 211 212 213 214
231 229 218 203 199 207 196 175 173 188 211 220 224 233 225 210 214 226 231 230 237 248 255 261 274 291 286 271 267 276 283 294 332 329 304 286 328 357 3 352 337 332 331 322 300 284 275 267 261 257 252 236 217 208 206 203 201 202 203 201 200 201 200 198 198 196 195 194 193 193 194 196 198 199 199 199 199 199 202 206 209 210 210 212 214 215 216
218 221 221 214 219 218 153 148 165 173 168 132 161 206 213 190 168 188 224 234 238 248 265 275 259 251 258 258 265 10 11 7 11 6 3 9 11 1 348 341 344 343 337 325 301 280 267 261 255 249 248 243 227 211 206 206 202 202 205 204 199 200 199 198 198 198 197 198 196 195 197 199 199 199 199 200 200 201 204 208 211 212 213 215 217 219 221
219 222 222 217 220 175 95 131 164 164 169 172 185 200 186 129 95 89 203 237 236 251 287 275 239 237 247 264 335 8 0 359 10 11 3 359 355 345 337 348 356 339 316 304 290 276 274 275 262 247 239 237 233 219 208 209 207 204 206 205 200 199 199 199 199 199 199 199 198 198 200 200 200 200 199 200 201 202 205 209 212 214 215 217 220 221 222
221 223 223 221 214 149 107 146 149 129 173 189 194 199 130 74 62 56 44 351 18 35 323 282 257 254 281 317 339 343 342 350 0 357 350 346 344 342 341 348 346 325 308 309 302 297 318 321 279 258 245 233 230 223 212 213 216 209 203 200 198 198 198 199 199 198 198 197 197 200 202 200 199 200 200 200 202 203 206 209 211 213 215 217 221 224 225
218 217 218 223 220 96 56 133 156 140 193 190 167 317 315 5 52 36 15 3 18 19 354 331 315 307 314 320 325 332 338 342 339 333 336 337 332 332 335 339 336 323 317 324 315 313 333 328 285 262 250 233 223 221 218 218 220 214 199 194 195 196 197 198 199 197 195 195 197 201 203 200 200 201 201 202 204 204 207 209 210 213 214 215 220 227 232
219 216 215 218 212 38 25 21 168 129 71 355 357 331 296 260 33 17 359 4 15 4 349 340 324 314 316 317 321 330 333 332 326 321 328 335 329 322 320 326 336 328 319 325 332 341 349 344 332 297 254 229 212 215 219 217 217 216 204 193 193 194 194 197 198 196 194 196 199 202 203 201 201 202 201 202 204 203 205 208 210 212 214 216 220 227 235
220 214 210 216 252 18 11 1 32 47 28 15 353 339 325 323 0 3 353 356 4 355 346 342 326 313 309 310 318 327 325 322 321 319 325 330 325 314 313 334 344 328 320 337 349 354 1 354 342 327 283 218 196 200 207 208 213 217 212 195 189 191 194 195 198 198 198 200 202 203 203 200 200 201 200 200 202 203 205 210 215 217 220 223 224 227 234
279 252 252 326 350 351 357 13 21 2 355 4 2 355 353 350 354 356 345 340 351 353 346 337 324 315 315 317 321 323 319 317 318 317 316 316 313 308 314 341 336 314 320 356 350 350 7 11 357 349 341 185 175 165 137 150 205 211 206 193 187 191 195 197 200 202 201 203 204 203 201 199 198 200 201 200 202 205 208 214 220 224 225 227 229 231 235
298 283 267 273 303 330 337 346 351 341 338 350 357 356 359 355 348 346 341 338 344 347 343 338 331 326 326 326 324 323 318 314 312 309 304 304 307 308 317 340 328 305 311 359 351 345 3 21 30 22 27 83 125 120 119 152 177 180 188 191 191 195 198 196 198 199 197 199 201 200 201 201 199 200 203 203 205 208 212 218 223 227 230 231 233 236 239
279 273 253 249 283 334 334 323 315 314 324 342 350 350 351 346 340 339 340 337 337 338 337 332 326 325 329 328 323 322 321 315 311 307 302 304 311 312 324 342 330 314 331 7 5 26 38 37 42 43 51 74 95 121 168 183 175 166 185 195 194 198 200 196 194 193 192 195 197 196 198 200 200 200 204 207 209 210 216 222 225 226 229 233 237 241 242
248 258 267 278 298 310 306 293 288 296 317 340 348 343 337 337 337 337 337 335 330 328 329 328 320 317 326 327 315 318 331 332 327 321 313 311 315 317 329 338 328 335 36 52 56 68 62 47 41 45 52 57 60 64 69 119 170 170 176 186 188 191 194 190 186 188 190 193 193 190 189 193 197 200 203 209 212 211 214 221 225 226 226 229 236 241 243
248 251 260 270 284 289 277 268 280 313 336 341 338 331 328 331 334 331 329 330 325 315 316 323 315 305 308 313 306 312 338 344 339 336 329 318 314 318 331 340 339 359 55 72 72 70 69 64 60 60 58 51 46 46 47 41 56 124 151 163 169 172 176 179 180 179 179 184 189 187 185 186 190 190 194 206 202 182 164 172 197 223 230 231 246 263 274
247 245 245 251 266 276 269 268 297 334 341 332 325 323 323 326 329 326 323 324 324 317 312 317 312 304 304 304 297 297 316 327 332 338 331 317 310 311 313 315 324 11 49 67 80 81 79 76 73 69 64 57 50 48 52 54 52 54 70 102 132 147 152 153 164 177 179 177 178 185 189 187 180 161 121 90 105 98 74 50 22 344 330 327 325 324 325
252 255 256 258 268 280 285 290 300 313 319 314 310 310 313 315 317 317 315 318 321 318 310 304 301 298 292 283 284 292 310 316 318 330 320 316 324 346 343 324 348 45 40 45 65 74 73 72 72 67 60 56 53 49 53 70 86 81 68 70 82 88 67 56 73 133 171 160 155 177 193 180 153 139 120 88 64 50 36 28 17 346 332 334 332 331 332
262 266 272 280 281 277 280 286 291 296 302 300 296 296 298 300 304 306 306 310 312 310 304 290 268 264 264 268 279 285 208 160 150 141 86 18 25 39 42 50 69 67 50 49 62 69 67 66 67 65 59 55 53 51 50 62 87 104 113 114 105 95 77 62 65 78 75 67 83 145 180 102 97 126 137 104 76 60 57 64 66 65 62 42 19 1 348
260 266 274 279 278 275 275 279 281 282 282 281 282 284 285 286 291 293 296 299 299 296 292 277 248 239 251 263 248 202 171 139 106 108 106 91 82 82 77 71 72 75 72 69 69 70 71 69 67 66 63 59 54 52 53 54 58 76 104 112 100 100 116 130 125 116 113 116 131 147 151 119 124 161 183 145 113 100 93 82 66 58 58 45 25 12 2
257 262 263 262 262 263 265 267 265 265 267 266 267 269 271 273 276 278 281 288 288 283 283 278 259 244 289 332 307 158 139 113 93 90 101 99 88 77 71 67 66 69 73 72 68 67 68 70 69 66 62 58 56 57 59 61 63 73 85 80 65 70 93 117 122 118 121 132 140 133 116 109 119 122 115 109 109 109 109 97 71 54 52 41 20 10 9
257 257 259 260 258 255 255 258 259 261 263 262 263 265 267 266 266 265 263 266 272 273 274 273 260 231 177 13 59 112 114 104 89 81 80 85 86 84 79 77 74 73 73 71 68 64 63 66 69 68 64 60 60 64 69 76 82 86 91 92 87 84 90 100 109 112 110 108 111 108 97 92 98 102 102 100 96 89 81 73 63 53 51 39 11 1 4
257 252 248 249 252 253 254 257 260 261 261 261 264 266 264 263 265 262 249 237 246 259 260 254 242 215 160 134 140 129 124 116 101 83 69 71 87 96 92 84 80 78 77 75 72 67 63 62 65 68 68 67 67 68 71 76 82 88 97 108 113 111 106 105 106 106 102 99 99 95 89 88 94 98 98 97 96 95 89 71 51 40 38 20 356 354 3
258 254 249 245 250 256 257 257 258 258 257 256 259 259 254 250 252 253 243 229 229 239 237 226 222 204 157 136 131 112 104 102 97 85 69 61 68 85 91 87 81 76 72 70 68 65 63 61 62 65 68 72 79 85 85 79 71 69 78 92 101 103 104 104 105 102 96 88 86 87 85 86 91 95 94 90 86 89 92 78 50 23 20 12 357 359 8
256 254 252 251 251 252 252 252 252 251 249 248 250 251 248 239 235 235 231 224 224 226 219 212 215 198 156 138 125 112 105 98 92 88 81 71 64 66 74 77 76 73 69 65 63 63 64 62 59 56 55 60 77 99 108 103 96 89 84 81 81 81 79 79 90 99 99 93 91 96 101 100 98 99 102 103 99 95 93 88 67 18 17 23 12 11 11
257 256 254 252 248 245 246 247 245 243 241 239 239 242 241 233 225 220 216 218 223 219 204 191 172 122 102 109 105 105 108 102 93 87 84 79 73 67 66 66 66 65 60 57 56 60 65 66 63 56 48 42 47 69 96 109 112 111 102 91 84 77 65 61 70 83 89 91 93 93 95 97 95 92 90 90 92 99 102 89 64 28 23 24 24 26 19
255 254 251 247 241 240 243 244 239 235 232 230 230 233 231 223 218 215 205 197 201 202 189 168 139 113 106 114 113 109 103 95 90 88 87 84 81 75 71 70 69 67 60 53 49 49 53 59 63 64 61 48 36 37 52 76 97 104 98 93 91 86 73 66 74 82 79 77 80 76 72 77 82 81 77 70 60 63 79 66 37 26 25 20 27 34 21
249 251 248 240 234 234 236 234 229 225 223 221 223 225 220 212 217 223 208 182 174 178 167 140 124 122 124 130 130 121 110 98 90 89 89 86 83 79 76 73 70 66 62 56 49 44 42 42 46 54 64 64 53 41 41 50 66 82 92 96 94 88 76 66 69 79 77 70 68 68 64 65 69 70 75 76 63 44 40 32 15 9 11 19 34 29 2
248 254 250 236 227 226 225 222 218 216 215 216 216 214 209 203 205 212 204 176 162 161 148 128 121 122 125 124 120 115 111 103 94 88 84 83 82 81 81 80 75 69 63 58 54 49 40 32 32 41 50 55 58 51 41 42 57 68 77 86 86 81 75 66 60 65 70 68 67 68 65 63 63 61 60 69 72 63 43 22 9 359 352 359 22 15 348
255 253 256 254 241 226 217 213 207 200 203 208 207 205 206 202 194 194 194 183 173 161 139 124 121 120 115 107 101 98 93 85 83 82 79 77 78 77 75 74 71 67 64 58 55 54 47 35 35 42 44 41 45 41 26 25 55 68 65 70 72 67 68 69 60 53 55 56 55 55 51 44 47 44 23 9 17 17 357 346 350 341 331 336 355 359 343
10 322 291 292 255 215 204 201 190 178 181 194 201 201 196 177 158 172 187 182 172 156 135 124 121 116 107 96 89 86 82 76 76 77 75 75 78 77 73 69 65 64 62 53 44 46 47 39 37 44 48 43 39 31 20 23 48 65 58 63 69 62 62 66 59 50 48 45 38 37 34 22 19 18 5 355 355 350 341 338 334 324 318 320 326 331 332
29 35 40 27 34 120 150 167 165 160 159 164 181 191 184 167 186 193 185 170 156 144 134 126 118 107 100 97 91 83 79 79 78 77 75 77 77 74 70 65 61 61 59 47 37 39 43 39 37 42 49 47 39 28 22 27 45 58 51 55 63 61 59 60 55 49 48 43 33 30 29 26 25 24 19 15 14 7 356 349 342 331 324 321 317 313 312
32 37 43 44 45 48 46 42 49 72 98 121 144 138 107 81 148 167 147 130 123 119 117 116 113 107 102 99 93 86 82 83 82 78 75 73 71 67 61 55 52 53 51 42 37 38 39 38 38 41 43 44 41 32 26 28 40 54 56 56 57 56 56 58 54 49 45 41 35 33 33 30 27 25 22 20 18 16 15 9 358 346 339 335 332 333 329
32 34 36 40 43 43 43 44 45 46 48 48 52 84 91 79 69 74 83 90 99 100 97 99 106 103 95 89 87 84 80 79 77 75 71 66 64 64 60 52 47 48 47 44 41 38 37 39 42 41 39 39 40 38 33 32 38 49 55 56 56 54 54 55 55 50 46 44 42 39 38 36 33 31 28 22 16 14 16 16 10 3 359 355 353 352 348
32 33 32 38 44 43 40 45 47 46 47 44 33 38 71 78 70 65 66 69 79 86 88 87 89 87 80 76 77 74 69 68 68 68 68 64 61 62 58 49 42 42 43 43 43 40 38 38 40 39 37 37 37 39 40 41 44 48 51 53 55 55 53 52 53 50 47 46 44 40 37 38 38 36 33 27 22 17 14 14 14 11 7 3 1 359 354
31 32 30 36 45 43 38 43 48 47 49 48 41 41 61 72 70 63 60 61 65 72 76 78 79 79 76 75 74 70 66 64 63 62 62 61 59 60 58 46 39 39 40 41 41 40 38 38 36 35 34 33 34 37 42 45 47 49 50 50 52 52 51 50 50 48 46 46 45 41 38 38 38 37 34 31 28 23 17 14 14 12 9 9 5 360 354
34 33 29 28 34 37 36 41 46 46 46 47 44 43 54 65 67 63 61 64 65 65 66 69 73 76 75 73 72 71 68 65 62 60 59 56 54 55 57 48 40 38 39 40 39 38 37 36 34 32 32 33 33 36 41 44 45 47 48 49 49 49 48 47 46 45 45 46 46 44 41 39 39 38 36 35 34 29 21 17 15 13 11 11 10 4 360
34 37 34 28 29 33 35 39 45 46 40 40 42 43 48 57 64 64 62 62 63 62 59 58 61 66 68 68 67 65 64 63 63 62 61 58 55 54 55 51 43 39 39 40 40 39 37 34 31 31 35 37 38 38 41 43 43 44 46 48 48 48 48 46 44 42 41 41 43 44 43 41 40 39 38 38 37 33 27 22 20 18 15 14 12 11 8
29 33 38 37 36 37 39 41 45 48 44 42 45 48 49 52 59 63 63 62 62 62 61 57 54 53 55 60 61 58 55 55 57 58 60 60 57 52 51 51 48 43 42 42 42 40 37 33 31 34 39 42 43 43 44 44 43 44 45 45 46 46 46 45 43 42 40 38 38 39 40 42 43 42 42 42 41 37 33 28 25 23 22 20 17 16 17
31 31 38 42 39 38 41 46 49 53 55 52 51 52 52 53 56 60 62 62 60 58 59 60 58 54 53 57 61 62 60 57 55 54 55 58 55 50 50 52 51 48 45 44 43 41 37 34 34 37 40 42 44 46 47 45 44 45 45 44 44 45 45 44 43 41 40 39 38 36 37 40 43 43 43 45 44 41 39 36 32 30 29 27 24 24 25
33 32 37 43 43 39 42 50 56 58 60 59 55 53 54 56 56 57 59 60 60 59 60 61 62 61 59 60 64 66 65 62 58 56 56 59 59 55 55 56 56 54 50 47 44 39 34 32 34 38 41 43 46 48 48 46 46 46 45 44 43 43 42 43 43 42 40 39 39 38 37 39 41 43 44 45 46 44 43 42 39 36 33 31 30 30 31
35 34 34 39 43 43 45 50 54 54 56 58 58 56 59 61 61 61 61 61 61 62 63 63 61 59 57 58 61 66 68 67 63 58 57 60 60 55 51 52 55 57 57 54 49 42 36 34 35 37 40 44 47 48 47 47 47 47 46 45 44 43 41 40 40 41 40 39 39 39 39 39 40 41 42 43 44 45 44 43 42 39 35 33 33 32 32
37 38 36 37 41 44 46 49 51 50 49 51 56 61 66 69 68 66 65 64 63 63 63 64 64 62 59 58 58 60 64 69 68 61 57 59 60 56 51 48 48 50 55 58 53 46 39 36 36 37 40 43 46 47 47 47 46 46 46 46 44 43 41 40 38 38 39 39 37 38 40 41 40 39 40 40 41 42 43 43 43 43 41 38 37 36 36
35 38 39 38 38 40 43 46 48 48 47 47 49 54 63 72 76 74 70 68 67 67 66 65 65 64 63 63 63 62 63 67 70 68 64 62 61 58 54 51 48 46 46 49 50 46 40 36 34 35 39 43 44 44 45 46 45 45 45 45 45 43 42 42 40 39 39 40 40 39 39 40 40 39 39 40 40 40 41 43 43 43 44 45 44 41 39
32 36 40 40 38 38 41 45 47 48 51 53 54 57 62 68 74 79 79 77 76 76 74 72 69 66 64 64 65 65 64 66 68 68 65 62 60 57 54 51 49 47 45 44 43 44 41 37 33 33 37 41 43 43 43 44 44 44 43 44 44 42 40 40 42 42 40 40 41 42 41 41 42 41 40 40 39 37 37 39 39 39 39 43 45 44 41
33 35 41 46 45 42 44 48 49 48 48 51 55 59 62 64 68 73 78 80 80 79 75 73 73 71 69 67 67 65 63 62 61 60 59 57 55 53 51 48 46 44 43 43 43 41 40 38 36 34 35 38 41 42 41 42 43 43 40 40 42 41 37 34 35 38 39 38 39 41 41 41 42 43 44 43 42 39 37 36 36 35 35 35 36 38 38
40 37 38 47 53 50 47 49 52 50 47 48 51 55 57 60 63 64 61 61 66 72 75 72 67 62 60 61 63 64 63 61 59 57 55 53 50 47 45 45 42 39 37 40 42 41 39 40 39 37 36 37 39 40 39 40 42 43 41 38 38 40 40 35 32 32 34 34 35 37 38 37 37 39 41 41 39 38 37 35 33 34 34 33 33 33 33